ECMWFFLT1_con_mucape_057.txt.gz
CAPE
1228 1108 1169 1241 1214 944 1065 1032 1013 955 850 1144 1191 966 1046 1023 873 728 720 825 838 834 910 984 1073 1199 1030 691 723 803 800 808 894 915 896 894 820 531 291 725 746 664 592 390 279 449 328 181 29 415 287 21 2 3 2 4 2 1 0 0 0 0 0
1280 1095 876 740 845 849 1032 767 812 518 579 665 922 1136 1153 1071 1076 1047 1049 953 983 941 816 767 1027 1045 856 737 736 858 955 959 1012 1203 1204 1120 1071 931 595 716 764 643 469 640 548 550 296 221 160 122 13 14 6 4 5 3 2 2 2 0 0 0 0
892 674 793 830 770 793 1013 872 803 576 372 378 459 794 1042 1094 1046 1082 1015 961 1111 1013 855 750 1026 1174 1009 814 765 1184 1189 1246 1054 1146 1200 1337 1159 1174 950 845 806 556 499 457 559 480 267 320 186 103 71 119 5 2 3 2 2 2 0 1 0 0 0
923 810 819 741 574 720 841 777 750 602 423 346 344 511 924 884 1032 954 1042 1050 1049 954 774 857 1154 1212 1392 1247 941 921 1286 1269 1123 1185 1081 1112 1058 1052 870 782 857 702 628 585 538 668 478 220 191 155 151 12 3 4 0 0 0 0 0 0 0 0 0
925 874 916 743 535 689 845 708 536 384 275 231 339 465 670 758 858 834 800 792 799 946 1015 990 1038 944 987 904 1005 1177 953 802 971 915 1060 1096 1028 1100 924 840 856 830 767 894 787 877 706 339 214 123 30 5 3 0 0 0 0 0 0 0 0 0 0
948 1022 983 800 587 675 709 587 394 381 226 239 334 554 799 810 718 722 733 833 827 922 786 746 853 700 771 836 842 819 885 862 905 1024 1080 1243 1084 1076 968 731 600 492 670 884 828 877 807 381 239 108 16 7 1 0 0 0 0 0 0 0 0 0 0
934 1024 871 678 574 626 636 620 464 335 286 384 408 767 594 548 679 807 817 795 640 476 461 536 533 497 663 575 684 799 791 753 815 1090 1185 1176 1127 1278 1085 658 549 621 782 765 832 794 608 425 260 130 25 7 0 0 0 0 0 0 0 0 0 0 0
820 837 752 631 482 517 593 638 555 430 312 334 426 287 184 440 392 380 500 463 288 225 114 122 40 94 168 171 283 331 251 270 498 674 908 967 1015 857 1056 1097 885 719 776 732 720 706 565 551 376 185 54 11 0 0 0 0 0 0 0 0 0 0 0
604 697 495 294 332 455 451 538 475 499 508 289 189 130 124 283 321 334 190 116 10 0 0 1 0 0 8 105 62 140 86 143 194 236 258 363 635 710 907 988 848 765 752 676 738 724 573 631 515 311 196 16 0 0 0 0 0 0 0 0 0 0 0
509 525 375 258 210 248 397 541 473 244 152 204 109 93 106 161 291 252 107 1 0 0 0 0 0 0 0 0 1 1 0 0 1 0 6 105 109 302 624 840 984 857 663 748 656 756 753 612 517 451 167 18 0 0 0 0 0 0 0 0 0 0 0
496 533 438 275 154 131 160 170 135 64 97 71 37 3 78 78 95 34 76 0 0 0 0 0 0 0 0 0 0 0 0 0 0 0 0 3 13 162 339 474 684 650 567 633 740 748 640 552 406 262 108 73 5 0 0 0 0 0 0 0 0 0 0
522 385 385 251 184 227 178 144 168 160 38 2 0 2 42 58 30 10 7 0 0 0 0 0 0 0 0 0 0 0 0 0 0 0 0 0 0 82 378 606 635 706 616 772 697 586 578 471 371 136 28 3 17 106 0 0 0 0 0 0 0 0 0
481 331 302 214 241 372 228 169 98 77 120 3 6 19 38 16 1 0 0 0 0 0 0 0 0 0 0 0 0 0 0 1 0 0 0 0 0 80 329 512 533 615 641 673 656 610 531 421 323 92 26 11 13 201 24 0 0 0 0 0 0 0 0
389 352 259 265 369 386 226 115 129 131 17 16 0 0 2 0 0 0 0 0 0 0 0 0 0 0 0 0 0 0 0 0 0 0 0 0 0 7 93 277 323 394 532 753 700 665 479 423 366 357 105 32 34 51 7 0 0 0 0 0 0 0 0
222 267 303 247 346 197 139 74 35 13 67 3 0 0 0 0 0 0 0 0 0 0 0 0 0 0 0 0 0 0 0 0 0 0 1 0 0 0 22 67 58 122 298 636 666 441 447 310 140 138 153 108 67 22 30 5 1 0 0 0 0 0 0
194 234 246 212 244 150 132 31 1 38 45 0 0 0 0 0 0 0 0 0 0 0 0 0 0 0 0 0 0 0 0 0 0 0 0 0 0 0 0 2 12 30 67 406 420 360 337 296 145 89 250 214 238 118 8 0 1 0 0 0 0 0 0
245 228 232 212 270 197 84 13 1 28 9 0 0 0 0 0 0 0 0 0 0 0 0 0 0 0 0 0 0 0 0 0 0 0 0 0 0 0 0 0 0 1 36 171 74 150 165 248 316 252 370 459 339 224 114 2 0 12 0 0 0 0 0
252 285 224 226 281 144 65 9 0 0 0 0 0 0 0 0 0 0 0 0 0 0 0 0 0 0 12 12 0 0 0 0 0 0 0 0 6 0 4 3 0 0 0 1 0 0 0 1 10 18 60 49 53 177 51 23 6 0 0 0 0 0 0
304 291 252 243 144 82 26 5 0 0 0 0 0 0 0 0 0 0 0 0 0 0 0 0 0 0 0 6 9 8 1 0 0 0 0 0 0 0 7 1 25 39 35 43 94 110 15 3 0 0 0 0 0 3 1 1 0 0 0 0 0 0 0
382 298 123 29 1 0 0 0 0 0 0 0 0 0 0 0 0 0 0 0 0 0 0 0 0 14 8 12 14 5 9 4 0 2 1 0 0 0 0 0 24 62 14 10 87 136 134 71 0 0 0 0 0 0 0 0 0 0 0 0 0 0 0
412 245 76 0 0 0 0 0 0 0 0 0 0 0 0 0 0 0 1 5 9 10 6 0 1 5 7 32 44 57 53 51 2 7 13 0 0 0 0 3 8 10 6 10 34 120 192 112 54 23 4 0 0 0 0 0 0 0 0 0 0 0 0
47 0 0 0 3 2 0 0 0 0 0 0 0 0 1 0 0 0 0 1 0 14 32 64 41 42 32 38 54 90 71 10 26 18 53 26 21 10 1 12 40 24 204 46 0 66 78 103 107 100 35 0 0 0 0 0 0 0 0 0 0 0 0
51 0 0 0 0 3 12 34 39 2 0 0 0 0 0 0 0 0 0 0 6 42 67 138 14 0 0 35 83 28 82 123 76 75 105 175 316 117 84 186 234 14 0 0 0 0 0 0 0 432 240 40 7 0 0 0 0 0 0 0 0 0 0
40 93 0 0 0 0 0 0 0 4 0 0 0 0 0 0 0 2 2 10 41 72 124 3 0 0 0 0 2 134 111 223 206 203 219 219 169 439 609 295 429 128 0 0 0 0 0 0 0 0 0 2 13 62 66 24 4 0 0 0 0 0 0
19 14 2 3 2 0 4 10 11 9 6 0 0 0 0 0 0 0 0 0 14 50 26 0 0 0 0 0 0 16 82 158 316 300 312 387 453 583 701 837 691 564 665 684 534 58 0 0 0 0 0 0 0 0 0 134 236 107 30 2 0 0 0
9 3 8 9 4 0 0 0 0 3 9 3 12 0 1 0 0 1 19 22 45 23 0 0 0 0 0 0 0 0 8 88 80 209 326 383 454 602 736 728 848 706 428 12 6 150 102 133 110 11 1 0 0 0 0 0 0 139 199 50 18 39 12
2 0 2 6 0 0 0 2 4 17 32 34 33 36 0 0 0 0 10 59 22 0 2 0 0 0 0 0 0 0 8 81 140 176 196 249 399 490 629 632 632 746 874 476 475 490 243 161 179 180 179 116 132 217 176 0 0 0 0 42 123 152 215
10 3 1 10 8 2 1 5 28 46 45 48 48 58 52 7 0 0 0 0 0 0 1 0 0 0 0 0 0 0 0 11 91 176 217 196 173 212 252 252 293 368 578 622 548 420 377 391 320 230 169 226 284 56 272 0 0 0 0 0 0 95 226
7 2 5 5 9 4 11 24 35 42 46 42 38 42 42 44 44 40 0 0 0 0 0 0 0 0 0 0 0 0 0 19 151 264 313 296 243 277 241 292 355 420 507 523 215 0 12 90 196 204 246 296 312 255 0 0 0 0 0 0 0 0 7
12 1 2 2 1 13 18 26 22 18 51 55 24 6 82 81 80 76 22 0 0 0 0 0 0 0 0 0 0 0 0 1 54 190 397 385 287 257 272 229 314 390 525 569 153 0 0 0 85 180 221 289 150 144 136 25 0 0 0 0 0 0 0
10 7 4 2 0 1 3 1 7 0 0 0 0 0 0 9 27 86 97 18 11 66 74 82 66 65 0 0 0 0 0 0 0 4 169 292 240 236 227 342 369 372 372 478 336 319 342 340 313 308 300 273 244 242 234 218 143 0 0 0 0 0 0
1 4 8 7 0 1 0 0 0 0 2 14 6 1 0 0 0 0 1 0 3 14 4 10 30 45 30 0 0 0 0 0 0 0 0 15 84 175 221 70 190 376 448 475 456 423 379 332 285 220 330 334 301 336 327 270 193 55 0 0 0 0 0
4 7 7 1 6 3 1 0 1 2 4 0 12 13 0 0 0 0 0 1 0 0 0 0 0 1 3 10 14 0 0 0 0 0 0 0 0 1 12 113 22 0 14 222 322 320 277 250 237 198 158 210 247 255 364 157 140 0 0 0 0 0 0
2 2 2 1 4 9 11 10 3 1 1 2 1 0 0 1 1 0 0 0 1 1 0 0 0 0 1 1 1 0 0 0 1 1 2 1 0 0 0 0 43 0 0 0 0 0 65 195 211 133 8 90 204 201 59 47 88 15 0 0 0 11 0
1 0 0 0 1 3 5 9 11 4 4 7 7 9 8 11 4 3 4 0 0 4 2 0 0 0 0 0 0 0 0 0 0 0 0 0 0 0 0 0 2 0 0 0 0 0 0 109 142 142 102 93 92 93 6 4 53 44 7 0 0 2 2
6 6 4 4 3 4 4 3 4 2 2 4 4 9 12 14 11 8 6 4 5 2 1 0 2 1 1 0 0 0 0 0 0 0 0 0 0 0 1 2 1 0 0 0 0 0 23 87 117 134 108 63 75 110 96 95 92 74 62 42 35 60 45
2 0 0 1 0 0 0 0 0 0 0 0 0 0 0 0 0 1 0 0 0 0 0 0 0 0 0 0 0 0 0 0 0 0 0 0 0 0 0 1 1 0 0 0 0 0 0 0 0 63 72 0 74 132 178 176 132 120 99 77 63 87 92

ECMWFFLT1_con_mucape_060.txt.gz
CAPE
1105 1364 1395 941 737 685 785 754 904 866 768 906 952 827 962 908 789 750 858 962 763 746 730 1699 1638 1461 1376 1249 1170 1160 1064 1107 1305 999 881 872 852 864 1242 874 1380 1237 943 732 694 474 631 534 92 610 462 247 71 50 37 15 81 64 49 159 124 125 154
1573 1562 1083 746 533 587 718 888 732 597 789 754 778 836 774 643 780 751 852 859 905 757 775 698 1359 1518 1674 1555 1446 1363 1326 1156 1132 976 915 798 790 864 1026 635 851 910 989 993 943 872 641 591 426 230 254 43 22 11 7 10 11 49 32 22 65 82 106
1503 922 657 880 968 738 788 904 720 579 600 766 785 778 745 622 684 790 863 807 987 829 621 596 955 1634 1700 1596 1496 1436 1472 1302 1159 1074 1014 1032 672 1034 1093 947 715 867 828 810 1089 924 784 592 490 532 444 307 77 10 16 17 7 6 6 6 22 35 42
992 671 564 646 704 660 644 592 589 476 473 615 644 856 824 659 723 714 692 742 788 833 493 575 1178 1095 1686 1694 1550 1575 1437 1322 963 1021 1122 687 808 902 1006 952 973 745 573 603 836 708 679 728 595 586 438 297 66 9 10 9 5 3 2 15 8 1 5
972 749 806 599 569 638 597 516 486 462 448 510 627 743 929 815 780 588 500 384 374 490 545 531 490 1352 1548 1643 1630 1464 1254 1188 1098 1066 1244 1317 854 688 994 812 1168 1004 716 675 483 702 618 690 690 544 345 134 124 28 2 12 6 4 3 1 4 0 0
982 900 874 843 655 614 615 532 447 384 424 454 522 468 899 869 659 558 458 371 356 374 314 324 473 456 618 699 1553 1369 1370 1289 1185 1554 1129 1276 1000 1039 945 928 925 914 745 796 699 700 680 666 730 448 151 97 58 6 1 2 2 2 6 2 0 0 0
1074 946 807 768 676 758 602 530 526 439 263 353 450 570 768 623 545 497 403 318 334 362 436 547 527 503 877 346 948 1332 1349 1399 1391 1558 1318 1392 1228 1127 1033 859 1076 1008 1054 1028 986 780 776 734 596 461 296 154 26 1 0 0 0 0 0 0 0 0 0
1069 1019 787 767 805 828 662 637 570 331 306 347 408 595 665 653 575 508 441 418 375 479 506 612 661 758 843 239 407 1291 1274 1309 1373 1397 1246 1350 1308 1219 1272 1206 1122 1135 1163 1105 1023 939 610 749 760 552 240 65 5 1 3 0 0 0 0 0 0 0 0
1247 995 826 824 836 864 725 486 456 390 448 421 445 642 687 583 601 548 346 248 202 420 402 415 372 281 585 400 353 861 780 842 1313 1499 1349 1466 1515 1396 1596 1604 1156 1064 1244 1130 1078 823 669 733 555 511 61 1 3 2 1 0 0 0 0 0 0 0 0
1313 1078 939 1057 878 791 693 521 447 469 494 512 425 665 679 552 542 410 236 103 106 210 310 232 187 232 370 219 281 383 329 376 297 532 855 1150 1248 1440 1555 1630 1397 1314 1278 1354 1127 1082 1118 805 264 268 3 0 0 1 1 2 0 0 0 0 0 0 0
1455 1531 1116 1056 912 870 596 553 523 631 531 376 395 617 648 624 582 307 188 63 28 90 168 137 71 87 189 157 142 99 82 146 182 235 360 591 925 1343 1436 1414 1480 1242 1444 1511 1450 1414 1184 917 48 0 1 3 8 4 6 1 0 0 0 0 0 0 0
1447 1600 1038 885 799 765 724 679 676 531 628 456 286 448 558 482 420 288 136 32 4 13 89 184 75 22 55 75 8 0 61 34 47 124 270 640 870 1132 1357 1557 1535 1499 1437 1684 1554 1217 1036 574 10 0 0 2 3 3 5 0 0 0 0 0 0 0 0
1421 1378 1108 976 758 688 596 659 752 795 630 340 362 346 362 353 356 280 135 28 0 0 15 92 27 4 0 0 0 0 0 0 0 6 56 234 515 1156 1318 1379 1397 1350 1453 1269 1141 928 726 277 4 0 0 0 0 0 0 6 4 0 0 0 0 0 0
1345 1020 1032 888 671 686 592 573 720 704 506 427 382 369 374 362 254 240 92 2 0 0 4 95 2 0 0 0 0 0 0 0 0 0 2 157 222 549 348 520 1068 1267 1303 698 649 586 191 154 16 0 0 0 0 0 4 13 7 0 0 0 0 0 0
1393 1088 1213 875 743 674 650 626 748 606 483 438 347 266 245 236 205 179 74 0 0 0 0 38 4 0 0 0 0 0 0 0 0 0 0 3 110 417 279 134 200 668 605 394 172 9 22 9 0 0 0 0 0 0 0 0 2 0 0 0 0 0 0
1367 1382 1264 948 734 588 606 570 551 440 342 238 208 210 182 144 86 96 18 0 0 0 0 8 5 0 0 0 0 0 0 0 0 0 0 0 1 99 196 264 288 692 448 272 86 4 9 0 0 0 0 0 0 0 0 0 1 1 0 0 0 0 0
1420 1408 1271 841 556 557 564 532 457 392 161 128 162 138 85 34 34 37 1 0 0 0 0 0 1 0 0 0 0 0 0 0 0 0 0 0 0 3 55 118 355 512 340 288 110 39 18 0 0 0 0 0 0 5 48 26 2 2 4 0 0 0 0
1429 1263 1203 871 664 616 641 528 485 353 189 108 97 76 21 24 30 7 0 0 0 0 0 0 0 0 0 0 0 0 0 0 0 0 0 0 0 0 2 16 15 103 149 72 65 2 0 0 0 0 0 0 0 18 106 121 121 14 24 19 0 0 0
1548 1459 1238 912 915 718 682 551 515 405 174 77 42 7 10 3 0 0 0 0 0 0 0 0 0 0 0 0 0 0 0 0 0 0 0 0 0 7 9 0 0 1 4 16 2 4 0 0 0 0 0 0 1 0 1 21 71 62 71 36 15 0 0
930 1207 1123 973 899 680 591 566 466 352 236 88 25 6 0 0 0 0 0 0 0 0 0 0 0 0 0 0 0 0 0 0 0 0 0 0 0 0 0 9 29 36 32 43 58 33 42 20 5 0 1 0 0 0 0 0 0 9 22 15 0 0 0
444 902 1241 941 707 580 561 492 430 364 232 78 2 0 0 0 0 0 0 0 0 0 0 0 0 0 0 0 0 0 1 3 0 0 0 0 1 19 22 6 1 0 3 10 49 74 80 70 32 65 18 0 2 0 2 4 8 6 14 25 3 3 2
196 158 405 641 545 486 417 374 289 245 197 106 27 0 0 0 0 0 0 4 0 0 0 0 0 0 2 0 1 2 1 0 0 0 0 2 4 20 30 91 125 115 1037 254 0 310 304 94 420 110 51 68 55 38 20 6 2 1 3 6 19 25 6
114 80 234 328 316 299 283 239 154 84 35 13 16 19 17 0 0 0 0 1 5 6 20 259 0 0 4 115 4 2 19 31 3 2 4 12 33 20 30 82 88 85 0 0 0 0 0 0 0 420 557 99 62 41 31 27 13 26 20 9 24 18 16
94 85 55 27 63 92 157 356 309 202 107 84 74 5 16 8 32 0 0 0 6 185 0 0 0 0 0 0 430 129 35 17 16 6 10 41 78 80 80 46 131 570 63 0 52 0 0 0 0 0 0 0 50 1004 84 32 46 45 16 13 20 14 11
248 171 13 32 0 0 0 21 173 322 211 118 103 110 61 30 32 30 13 73 248 2 0 0 0 0 0 0 0 109 170 117 125 52 71 103 118 146 135 123 204 394 257 184 235 142 0 0 0 0 0 0 0 0 0 293 306 68 56 57 78 146 114
7 24 21 0 2 2 5 22 64 110 60 12 32 36 18 22 34 127 79 4 0 0 0 0 0 0 0 0 0 41 85 221 206 121 125 162 135 119 197 620 947 863 698 463 389 419 586 189 0 0 0 0 0 0 0 0 0 41 248 116 137 142 159
13 0 1 1 9 1 0 0 0 4 5 0 1 0 0 0 22 71 15 0 0 0 0 0 0 0 0 0 0 0 214 379 416 328 361 442 576 578 647 792 741 937 1234 1272 589 372 686 798 621 105 2 5 67 266 0 0 0 0 0 57 230 274 274
0 1 0 0 1 5 0 0 0 1 2 2 2 4 1 1 25 33 1 0 0 0 0 0 0 0 0 0 0 4 797 934 647 604 647 787 943 848 920 942 813 498 646 1092 1248 1001 1086 1115 1145 1132 945 769 640 568 554 276 63 18 40 6 77 291 393
0 1 0 0 3 3 2 2 3 3 2 1 3 6 15 30 46 50 31 0 0 0 0 0 0 0 0 0 0 264 931 922 1034 1001 1133 1193 1081 969 1024 1044 1043 944 927 1050 1099 515 319 622 994 1242 1180 1190 1088 964 1033 1005 711 431 264 578 536 670 716
0 2 2 0 0 1 4 0 0 8 24 31 28 29 34 38 50 59 69 70 74 62 0 0 0 0 0 0 0 359 484 678 816 1038 1128 1328 1198 1062 1161 1126 860 716 1055 873 634 384 129 35 448 679 948 1045 1020 1105 1167 741 382 76 0 0 0 0 0
4 0 3 3 2 4 5 3 8 7 13 16 20 26 30 40 43 50 65 85 80 78 66 26 0 0 0 0 0 3 18 155 416 536 777 851 643 572 608 318 71 434 789 621 397 372 219 146 348 758 1043 1061 1057 1082 967 782 308 172 0 109 121 66 120
0 0 1 1 0 0 1 0 1 0 0 2 0 12 16 26 36 40 28 26 43 0 0 24 0 0 0 0 0 0 0 0 0 40 7 49 154 268 557 424 8 0 173 326 353 290 274 279 416 630 860 757 651 589 525 561 421 352 88 62 178 146 74
0 0 2 9 4 4 9 9 7 2 2 2 1 2 0 1 0 0 1 5 2 0 0 0 0 0 1 1 0 0 0 0 0 0 0 0 0 0 12 166 3 0 0 0 6 8 8 10 0 408 590 599 459 425 393 229 357 397 273 254 203 51 0
1 1 6 8 3 2 3 4 3 1 2 3 3 1 1 1 0 0 1 0 0 0 0 0 0 0 1 3 4 0 0 0 0 0 0 0 0 1 0 2 9 0 0 0 0 0 0 0 0 1 87 421 550 123 10 419 479 0 312 134 81 38 13
0 0 1 3 5 6 7 4 4 2 0 0 0 0 0 0 0 0 0 0 0 0 0 0 0 0 0 1 1 0 0 0 0 0 0 0 1 0 3 5 0 0 0 0 0 0 0 0 0 0 2 0 0 0 0 0 285 154 63 55 56 8 0
2 2 0 0 0 0 1 0 1 2 2 1 0 0 0 0 0 0 0 0 0 0 0 0 0 0 0 0 0 2 3 1 0 0 0 0 0 1 0 0 0 0 0 0 0 0 0 0 0 0 0 0 0 0 38 0 2 54 53 32 32 8 0
1 1 0 0 0 0 0 0 0 0 0 0 0 0 0 0 0 0 0 0 0 0 0 0 0 0 0 0 0 0 0 0 0 0 0 0 0 1 0 0 0 0 0 0 0 0 0 0 0 0 0 0 0 0 0 1 1 26 42 43 26 31 22

ECMWFFLT1_con_mucape_063.txt.gz
CAPE
724 892 871 991 1086 614 891 924 832 784 579 677 747 814 826 870 871 933 940 925 1006 714 941 1583 1447 1237 1044 955 985 1107 898 964 1057 860 531 977 870 958 887 832 704 741 956 283 562 552 376 335 401 535 653 312 263 231 213 244 280 279 245 230 206 335 258
859 1033 984 827 486 680 730 772 490 376 590 734 680 682 655 648 831 813 843 884 924 707 549 1529 1405 1137 1081 1171 1321 1543 1464 1294 1122 970 1033 1024 820 1031 713 1170 841 971 687 942 888 1118 365 286 538 434 325 236 169 126 151 148 121 119 132 115 128 136 174
1149 832 685 508 560 577 754 707 556 524 647 808 740 678 674 601 631 723 812 799 808 684 563 276 1258 1328 1430 1228 1181 1464 1406 1132 1340 1371 1263 1409 1172 807 997 789 767 1006 543 850 438 501 1124 715 205 308 253 267 135 126 151 80 61 24 21 53 89 110 55
931 694 346 392 775 587 768 702 564 516 617 700 749 717 651 474 565 548 458 597 725 747 317 588 1269 1497 1447 1336 1481 1525 1587 1373 1120 942 1420 1242 1203 830 886 1105 1228 608 470 613 374 741 763 489 538 401 346 253 54 64 50 9 10 6 16 63 28 1 2
818 588 300 653 519 530 618 624 463 428 444 416 603 687 637 473 532 580 586 605 635 686 539 381 647 1296 1383 1390 1420 1497 1301 1420 1252 1348 1482 1316 1137 1310 1371 968 1137 1312 990 851 559 445 920 670 554 249 194 130 112 36 10 37 12 1 6 5 0 0 0
667 535 503 504 514 586 544 410 412 383 413 463 543 526 645 594 516 617 549 486 539 636 548 455 405 1164 1299 1284 1340 1008 1023 1395 1363 1152 931 1155 912 1010 841 722 1056 852 996 1062 1047 618 427 678 758 464 198 215 123 40 9 0 2 5 0 0 2 0 0
796 889 761 526 528 574 545 597 568 561 532 578 524 494 577 582 407 488 449 435 450 554 541 510 350 460 903 926 1315 1288 1296 1278 1121 1346 1222 1032 830 1218 1294 914 865 778 708 935 1116 640 445 512 559 308 60 33 7 0 1 8 3 5 2 2 0 0 0
813 597 767 708 620 628 574 604 644 620 500 565 498 488 484 547 484 498 507 516 543 570 595 572 474 476 569 176 1065 1326 1334 1477 1575 1154 1214 1317 1266 1170 1092 859 982 721 1159 612 381 628 329 696 659 344 118 14 4 8 7 0 5 0 0 0 0 0 0
748 796 989 784 783 805 625 598 700 504 430 457 437 514 589 512 549 543 456 426 401 561 660 586 478 434 489 328 739 1356 1396 937 1476 1471 1442 1488 1307 959 1141 1107 1018 528 714 517 771 766 506 556 590 238 85 5 15 4 7 4 2 0 0 0 0 0 0
943 1338 1016 895 810 768 726 609 641 415 530 510 574 666 734 552 540 473 303 271 262 341 454 366 260 331 399 259 323 354 369 653 922 1299 1318 1499 1374 1324 926 1336 1248 1076 432 1041 928 833 334 261 190 101 1 7 26 9 0 4 13 1 0 0 0 0 0
1171 1390 1239 835 777 775 646 582 565 611 588 622 602 679 808 544 470 258 198 131 164 345 333 214 114 182 235 215 232 235 291 378 515 597 970 1231 1444 1385 1268 926 1015 782 502 897 861 633 387 141 19 0 2 8 10 9 8 1 2 4 2 0 0 0 0
1543 1611 1192 731 814 635 608 558 597 626 675 586 568 629 650 492 256 253 170 41 69 187 226 201 134 114 134 169 157 138 164 186 201 316 357 881 1268 1500 1136 1164 1193 1191 966 1099 832 680 272 14 7 10 11 12 3 4 18 4 0 0 0 0 0 0 0
1451 1330 849 629 566 539 505 726 550 662 695 391 370 474 507 443 294 240 111 9 12 78 264 177 73 100 110 74 28 46 75 75 94 172 243 583 968 1067 1412 1297 897 953 1074 985 626 292 40 1 7 9 0 2 0 4 0 0 0 0 0 0 0 0 0
1476 1166 627 389 599 492 504 482 519 561 606 501 354 384 437 403 333 231 72 0 0 28 153 104 79 76 53 6 13 10 1 2 12 49 112 156 261 1041 1053 1032 906 1082 1045 311 172 135 6 0 0 0 0 0 0 0 8 16 0 0 0 0 0 0 0
1331 979 563 552 468 466 457 481 555 546 558 593 458 373 469 290 254 178 36 0 0 3 134 85 50 16 4 5 12 5 2 0 0 29 113 62 88 65 314 994 943 507 168 37 72 3 1 0 0 0 0 0 0 0 0 3 0 0 0 0 0 0 0
1352 796 663 532 499 522 498 610 626 578 581 521 452 464 385 347 256 182 23 0 0 0 88 33 10 15 16 3 0 0 0 1 8 37 70 68 70 80 66 196 257 250 120 25 20 1 0 0 0 0 1 0 0 0 0 3 1 0 0 0 0 0 0
1242 938 666 462 503 698 661 639 565 483 482 426 395 382 322 284 202 138 14 0 0 0 46 11 0 0 0 0 0 0 0 5 4 6 20 41 70 102 96 156 258 186 37 16 1 2 0 1 0 0 0 0 0 0 8 0 0 4 0 0 0 0 0
1391 800 653 553 635 695 720 534 475 328 406 301 340 327 220 97 89 92 12 0 0 0 28 6 0 0 0 0 0 0 0 0 0 0 0 2 42 110 84 107 67 104 88 32 21 1 0 0 0 0 0 1 0 13 37 16 10 2 0 0 0 0 0
856 934 584 702 621 629 651 337 420 298 110 123 272 223 32 48 27 37 0 0 0 0 0 0 0 0 0 0 0 0 0 0 0 0 0 0 5 28 63 20 26 56 73 39 10 5 2 0 2 7 4 1 10 2 13 15 11 103 42 33 0 0 3
999 950 769 619 660 664 674 552 389 316 98 110 140 53 34 62 27 9 0 0 0 0 0 0 0 0 0 0 0 0 0 0 0 0 0 0 3 6 10 10 25 30 21 24 21 13 7 26 1 10 18 37 1 27 1 0 14 16 32 117 90 2 2
1580 848 677 573 611 611 572 484 451 347 176 35 1 8 2 7 20 0 0 0 0 0 0 0 0 0 0 0 0 0 0 0 0 0 0 0 3 7 12 16 34 29 51 93 182 48 30 10 19 31 32 9 9 11 6 15 22 35 87 56 76 60 6
1497 1168 679 367 229 376 383 494 544 394 185 11 0 0 0 0 0 0 0 0 0 0 0 109 0 0 13 0 0 0 2 0 4 13 17 18 24 29 11 4 4 249 89 0 0 40 149 131 426 137 122 52 32 13 27 112 66 21 75 50 34 16 11
1204 1279 840 584 486 474 486 532 534 403 161 7 2 0 0 0 0 63 0 0 0 376 28 0 0 0 0 0 26 1 3 21 18 19 15 28 21 49 76 97 467 0 0 0 0 0 0 0 0 18 229 313 165 90 79 62 70 44 5 1 14 20 17
813 777 776 669 604 429 448 247 308 140 46 23 50 40 46 0 0 13 11 146 183 0 0 0 0 0 0 0 0 246 31 66 32 44 56 79 65 60 85 85 269 284 22 0 28 0 0 0 0 0 0 0 1 164 392 270 103 100 51 69 64 40 51
421 574 609 546 465 442 287 160 104 111 143 90 39 34 61 177 231 351 148 21 1 0 0 0 0 0 0 0 0 203 118 43 28 49 46 43 73 70 56 44 117 141 28 30 47 9 1 0 0 0 0 0 0 0 0 61 232 211 164 66 50 110 128
156 213 90 57 91 175 221 205 187 194 219 314 372 286 207 307 172 4 0 0 0 0 0 0 0 0 0 0 0 8 48 158 129 58 61 72 69 83 124 131 96 228 356 148 96 264 207 59 0 0 0 0 0 0 0 0 0 20 112 306 279 255 283
8 0 0 0 0 2 81 62 0 0 25 10 17 44 194 210 13 0 0 0 0 0 0 0 0 0 0 0 0 1 76 179 234 164 94 83 93 117 162 189 288 644 605 711 360 642 242 724 410 202 0 1 45 273 0 0 0 0 0 33 192 328 435
63 16 0 0 0 0 0 3 3 10 4 1 1 0 3 2 0 0 0 0 0 0 0 0 0 0 0 0 0 0 403 385 222 210 172 174 292 594 761 877 880 824 596 436 428 40 33 222 416 684 760 700 496 413 534 508 187 48 4 10 47 257 454
5 10 7 0 0 0 0 0 4 1 0 0 0 2 0 0 0 0 0 0 0 0 0 0 0 0 12 0 79 54 507 418 199 234 508 708 833 873 734 607 606 604 705 493 292 115 276 250 199 385 417 632 647 437 408 805 1091 712 935 1339 639 1243 1189
5 4 4 3 0 0 0 0 0 0 0 0 0 1 3 3 1 0 0 0 0 0 0 0 0 0 0 0 0 225 342 208 195 737 891 898 1095 1046 1055 1079 1218 1084 654 1009 370 211 268 78 460 254 463 561 382 306 276 775 462 561 560 495 416 380 405
2 2 0 1 1 0 0 1 0 0 0 0 4 0 0 0 0 0 1 0 0 0 0 0 0 0 0 0 55 94 107 109 421 356 651 969 891 646 650 410 358 420 497 304 206 0 0 42 263 270 475 516 593 502 563 777 191 234 263 409 472 429 321
2 2 1 1 1 0 1 1 0 0 0 0 13 13 9 3 6 13 19 26 29 0 1 0 0 0 12 72 92 64 47 24 88 142 84 75 64 54 396 246 90 0 0 0 0 23 189 236 269 340 375 296 342 384 316 595 560 646 535 402 282 9 18
0 0 2 2 3 1 2 2 1 3 3 2 0 3 2 2 4 3 6 28 47 54 62 56 55 72 95 96 88 78 74 62 16 0 0 0 0 0 0 78 54 0 0 0 0 3 69 180 183 184 3 143 457 81 6 4 178 266 368 495 656 611 413
2 2 6 4 3 2 0 1 4 7 8 6 5 5 5 5 7 5 2 0 3 9 12 15 18 27 2 4 1 0 2 0 0 0 0 5 2 0 0 0 0 0 0 0 0 0 0 0 0 0 0 0 65 70 60 4 1 0 265 418 424 455 444
1 0 1 2 2 6 10 4 4 3 6 6 2 2 0 2 2 2 1 2 1 2 1 0 0 0 3 6 8 0 0 0 0 0 0 0 0 0 0 0 0 0 0 0 0 0 0 0 0 0 0 0 0 0 0 0 0 14 198 276 308 362 270
0 0 2 1 0 8 6 3 5 5 7 4 0 0 0 1 0 0 0 0 0 0 0 0 0 0 0 0 0 0 0 0 0 0 0 0 0 0 0 0 0 0 0 0 0 0 0 0 0 0 0 0 0 0 0 0 0 0 3 130 216 219 91
0 0 0 0 1 3 4 2 2 2 1 2 2 1 0 0 0 0 1 0 0 0 0 0 0 0 0 0 0 0 0 0 0 0 0 0 0 0 0 0 0 0 0 0 0 0 0 0 0 0 0 0 0 0 0 0 0 0 0 0 0 59 87

ECMWFFLT1_con_mucape_069.txt.gz
CAPE
697 666 632 556 466 408 386 449 488 378 314 338 386 332 342 590 808 613 805 935 1210 1155 1052 838 824 694 687 859 781 796 664 795 696 706 805 909 822 834 669 526 455 92 122 101 45 52 82 150 105 152 138 71 211 165 171 193 31 1 21 37 35 17 5
676 742 761 760 522 402 206 450 337 318 440 447 583 482 461 612 756 852 913 1021 934 885 984 810 747 762 601 677 721 775 669 763 735 723 847 922 776 831 553 550 453 468 457 176 161 25 89 92 78 101 108 119 126 60 168 1 10 9 18 41 61 14 30
657 844 851 760 598 142 84 96 130 312 493 252 300 301 538 603 733 773 872 1040 945 1046 820 686 714 710 702 664 887 879 842 786 680 694 787 868 677 626 458 507 580 549 552 436 219 48 48 90 112 98 57 31 38 14 4 1 10 15 8 4 6 1 0
708 824 751 632 377 131 84 111 131 437 219 200 285 312 468 412 474 491 562 600 607 613 662 689 888 910 880 958 1030 901 834 803 777 636 661 688 520 779 661 378 441 452 502 512 350 64 68 79 93 67 6 0 0 3 27 0 3 9 11 2 0 0 0
727 747 740 620 197 159 139 148 228 342 188 161 98 300 266 371 426 430 462 438 332 507 578 582 885 984 1076 1070 1041 993 836 819 687 784 801 738 725 664 542 437 306 377 336 425 346 83 47 56 41 9 0 0 0 3 14 0 0 0 11 1 0 0 0
752 696 654 554 177 145 210 217 508 333 134 93 52 251 282 159 179 300 174 350 325 548 588 639 641 775 942 1079 1038 912 947 828 804 902 764 667 787 784 712 601 574 557 187 283 605 411 230 43 16 4 0 0 0 0 0 0 0 0 0 0 0 0 0
758 659 574 448 137 136 343 476 461 174 118 112 221 128 137 104 97 178 177 233 255 421 458 520 566 697 783 1012 1100 1061 984 878 878 849 740 702 680 751 677 679 577 553 676 223 543 513 230 47 3 0 0 0 0 0 0 0 0 0 0 0 0 0 0
770 598 474 344 112 310 450 401 417 384 123 140 87 126 112 99 108 217 196 160 164 270 400 444 561 619 661 805 903 929 911 940 912 912 879 783 679 714 697 722 834 837 762 491 371 535 323 62 1 0 0 0 0 0 0 0 0 0 0 0 0 0 0
790 594 480 290 386 479 294 121 74 355 78 103 117 134 136 136 244 336 370 293 189 266 289 352 446 557 561 625 687 747 946 904 866 966 930 874 787 741 683 661 659 673 795 771 504 506 499 178 9 0 0 0 0 0 0 3 5 0 0 0 0 0 0
707 592 461 386 510 423 157 161 210 73 32 388 100 106 214 239 243 242 134 172 294 132 120 202 269 350 480 448 495 563 683 822 954 936 920 824 834 783 637 722 666 586 689 730 657 447 444 387 121 0 0 0 0 0 0 0 0 0 0 0 0 0 0
696 585 469 409 582 272 163 466 375 108 124 142 155 262 233 201 203 323 66 313 305 133 135 132 126 337 413 373 361 455 507 648 836 819 886 862 1020 846 795 712 556 507 388 746 556 450 261 349 133 82 0 0 0 0 0 0 0 0 0 0 0 0 0
667 620 526 591 657 411 279 470 345 283 324 177 281 274 266 215 235 195 5 62 131 284 279 56 37 69 246 358 369 372 542 629 659 802 793 907 1077 899 768 645 628 526 734 784 561 444 338 346 19 0 0 0 0 0 0 0 0 0 0 0 0 0 0
671 690 644 716 612 430 277 386 352 365 342 283 273 250 206 205 194 22 0 11 65 70 126 32 14 39 14 27 150 145 368 559 626 618 744 1007 1032 967 852 736 584 669 760 524 349 381 329 193 52 106 50 67 6 0 0 0 0 0 0 0 0 0 0
698 743 718 607 463 313 330 428 391 407 346 302 266 204 223 178 0 0 0 0 11 40 4 8 47 10 10 42 15 3 51 369 371 492 588 768 854 786 862 688 640 738 759 378 332 308 229 175 96 85 56 12 7 0 0 0 0 0 0 0 0 0 0
768 835 778 516 437 468 468 477 393 408 358 285 239 246 72 175 1 0 0 0 0 44 1 30 20 3 14 22 38 18 6 20 21 353 410 499 572 672 868 876 828 829 703 460 342 100 43 17 12 3 0 0 0 3 0 0 0 0 0 0 0 0 0
846 863 699 519 388 506 499 418 382 360 345 288 291 301 100 87 0 0 0 0 0 18 12 13 0 0 0 0 0 0 0 0 0 225 327 378 498 529 709 820 780 703 678 528 267 127 38 44 0 0 0 0 0 0 0 0 0 0 0 0 0 0 0
952 769 607 533 498 573 491 402 368 332 300 287 245 247 168 34 1 0 0 0 0 17 16 0 0 0 0 0 0 0 50 100 7 1 286 434 483 526 619 698 625 605 490 260 102 61 0 0 0 0 0 0 0 0 0 0 0 0 0 0 0 0 0
888 658 608 456 468 529 501 444 390 340 269 207 213 230 179 40 12 0 0 0 0 0 0 0 0 0 0 0 0 8 23 23 0 0 83 360 449 468 551 730 660 519 84 31 72 56 0 0 0 0 0 0 0 0 0 0 0 0 0 0 0 0 0
724 545 518 412 461 414 430 434 364 267 198 167 296 217 94 64 12 0 0 0 0 0 0 0 0 0 0 0 0 0 0 0 0 0 0 1 263 440 452 438 283 12 36 3 1 6 0 0 2 0 0 0 0 0 0 0 0 0 0 0 0 0 0
533 388 300 391 408 400 370 393 412 411 323 266 228 190 157 85 1 0 0 0 0 0 0 0 0 0 0 0 0 0 0 0 0 32 0 0 0 0 4 1 0 0 0 3 0 0 0 0 0 0 0 0 0 0 0 0 0 0 0 0 0 0 0
387 265 297 376 414 394 403 446 389 355 326 235 188 145 127 85 0 0 0 0 0 0 0 0 0 0 0 0 0 0 0 0 58 39 24 0 0 0 0 0 0 0 0 0 0 0 6 6 0 0 0 0 0 17 42 36 9 0 0 0 0 0 0
291 294 240 405 439 359 393 406 354 301 270 215 164 129 0 0 0 0 0 0 0 0 0 0 0 0 0 0 0 0 0 0 2 16 17 0 0 0 0 0 0 0 0 0 0 0 0 0 0 0 0 0 0 0 22 26 92 8 4 2 11 0 0
278 173 201 399 430 401 356 312 302 273 225 141 58 54 0 0 0 0 0 0 0 0 0 0 0 0 0 0 0 0 0 0 0 2 8 6 0 35 0 0 0 0 0 0 0 0 0 0 0 0 0 0 0 0 0 0 2 4 0 0 0 1 2
142 120 272 320 328 317 249 255 236 210 56 3 0 0 0 0 0 0 0 0 0 0 0 0 0 0 0 0 0 0 0 0 0 0 0 0 0 0 0 0 0 0 0 0 0 0 0 0 0 0 0 0 0 0 0 0 0 0 18 25 9 0 0
267 137 201 275 216 227 169 94 31 1 0 0 0 0 0 0 0 0 0 0 0 0 0 0 0 0 0 0 0 0 0 0 0 0 0 0 0 0 0 0 0 0 2 0 0 0 0 0 0 0 0 0 51 0 0 0 0 91 109 57 2 14 8
237 176 142 160 185 162 70 18 3 0 0 0 0 0 0 0 0 0 0 0 0 0 0 0 0 0 0 0 0 0 0 0 0 0 0 0 0 41 71 0 0 23 7 12 35 1 0 0 0 0 0 0 0 0 0 0 0 0 0 0 0 0 0
152 254 216 170 146 116 91 44 0 0 0 0 0 0 0 0 0 0 0 0 0 0 0 0 0 0 0 0 39 81 3 0 0 0 0 1 5 7 1 0 0 0 0 0 0 179 140 147 168 126 136 134 101 0 0 0 0 0 0 0 0 0 90
165 271 215 171 208 198 111 28 0 0 0 0 0 0 0 0 0 0 0 0 0 0 0 0 0 0 0 0 0 0 5 0 0 0 0 10 52 81 7 8 17 81 0 1 138 148 222 205 165 187 191 217 235 201 147 39 1 0 0 0 0 0 0
51 174 142 141 128 208 117 27 0 0 0 0 0 0 0 0 0 0 0 0 0 0 0 0 0 0 0 2 14 11 4 0 0 1 10 2 0 4 8 22 90 47 5 151 267 244 222 230 292 295 313 317 282 214 193 198 199 221 242 226 212 190 127
24 57 51 34 99 115 87 50 15 0 0 0 0 0 0 0 0 0 0 0 0 0 0 0 0 0 0 0 0 1 10 13 0 2 51 53 53 71 91 109 97 92 153 204 200 165 177 176 149 163 258 240 199 169 194 180 154 132 144 144 98 0 0
49 48 36 36 45 32 18 30 1 0 0 0 0 0 0 0 0 0 0 0 0 0 0 0 0 0 0 0 0 0 16 0 0 0 0 0 20 66 114 142 132 110 96 0 20 112 106 92 0 0 0 0 0 0 0 0 0 0 0 0 0 0 0
36 69 59 36 48 58 22 12 0 0 0 3 0 0 0 0 0 0 0 0 0 0 0 0 0 0 0 0 0 0 0 0 0 0 0 0 0 0 0 0 0 0 18 47 0 0 35 0 0 0 0 0 0 0 0 0 0 0 0 0 0 0 0
9 4 5 0 14 34 17 3 1 0 0 0 0 0 0 0 0 0 0 0 2 1 3 5 5 6 3 1 4 7 7 1 0 0 0 0 0 0 0 0 0 4 56 16 0 0 0 0 0 0 0 0 0 0 0 0 0 0 0 0 0 0 0
7 3 9 11 10 6 2 2 2 2 0 0 4 4 2 0 0 1 2 4 2 5 6 4 2 4 2 0 0 0 0 0 0 0 0 0 0 0 0 0 0 0 0 0 0 0 0 0 0 0 0 0 0 0 0 0 0 0 0 0 0 0 0
4 0 6 11 13 12 8 9 12 15 25 29 26 17 11 5 1 0 1 2 0 0 1 0 0 0 0 0 0 0 0 0 0 0 0 0 0 0 0 0 0 0 0 0 0 0 0 0 0 0 0 0 0 0 0 0 0 0 0 0 0 0 0
9 6 9 14 19 16 18 23 23 23 20 18 16 12 9 5 2 0 0 0 0 0 0 0 0 0 0 0 0 0 0 0 0 0 0 2 2 2 0 0 0 0 0 0 0 0 0 0 0 0 0 0 0 0 0 0 0 0 0 0 0 0 0
7 7 7 6 8 12 12 12 8 8 8 5 5 8 6 4 2 5 8 5 6 6 6 2 0 1 3 2 2 0 0 0 0 1 1 0 0 0 0 0 0 0 0 0 0 0 0 0 0 0 0 0 0 0 0 0 0 0 0 0 0 0 0

ECMWFFLT1_con_mucape_075.txt.gz
CAPE
1035 981 944 838 749 728 712 681 658 554 612 692 693 657 635 606 634 560 392 265 296 378 360 394 484 571 585 420 328 362 371 341 308 274 262 301 266 207 0 45 0 0 0 0 0 5 43 92 147 152 174 242 221 200 169 0 0 0 158 172 176 180 162
1088 989 776 706 759 862 814 704 632 543 536 555 581 627 582 547 488 419 344 452 444 557 652 591 571 668 608 463 386 405 432 387 349 298 278 319 322 254 4 345 171 0 0 0 0 0 7 94 147 158 129 204 236 236 107 0 0 73 188 64 157 184 40
1046 969 938 832 761 804 751 675 624 576 572 547 541 514 486 501 480 412 519 618 550 770 892 742 683 684 625 604 508 466 485 451 374 364 353 357 352 274 376 303 230 128 0 0 0 0 0 24 87 120 129 144 162 191 170 21 122 195 54 120 0 0 0
1064 982 927 790 672 718 684 614 597 605 574 534 438 346 405 457 504 572 721 730 717 958 964 791 798 718 748 726 623 516 462 443 438 409 457 422 385 325 414 383 257 0 0 0 0 0 0 0 48 107 137 118 126 185 34 105 134 116 128 49 92 0 5
1064 1013 943 809 684 626 673 642 652 640 554 469 409 370 379 514 526 612 722 761 854 1100 1026 831 737 738 870 870 755 532 486 495 501 538 533 489 456 392 377 457 391 137 0 0 0 0 0 0 5 46 102 139 112 32 0 82 65 67 87 67 49 0 44
1028 1021 904 804 632 683 739 658 621 569 490 474 444 405 438 509 499 573 665 772 897 1126 1059 874 726 752 818 853 759 650 622 599 587 569 552 520 508 438 316 413 434 248 0 0 0 0 0 0 0 0 51 152 115 68 54 25 34 72 73 44 42 30 31
847 814 819 737 685 769 754 600 532 484 521 533 481 420 421 466 476 558 650 728 865 1097 1065 846 678 565 646 694 709 721 678 654 607 527 558 578 518 446 406 447 392 296 0 0 0 0 0 0 0 0 76 101 51 22 35 56 42 55 16 19 15 0 20
655 810 834 756 764 762 676 522 474 502 552 512 480 486 490 486 536 604 702 784 847 999 985 830 752 704 652 619 588 585 575 526 498 514 571 602 527 448 465 457 388 324 0 0 0 0 0 0 0 0 0 0 22 39 39 33 25 11 0 2 13 13 0
741 740 772 804 822 628 569 492 445 541 512 482 490 533 494 566 603 694 736 795 831 792 772 808 762 729 700 627 594 601 588 594 581 557 582 596 591 574 533 448 394 328 0 202 311 176 182 0 0 0 0 0 0 1 20 17 15 10 0 0 0 0 0
968 916 890 816 770 587 542 452 408 512 472 460 537 574 594 632 675 655 521 600 505 546 700 688 618 648 651 595 626 628 718 672 660 573 391 464 536 567 476 456 445 346 411 406 391 378 375 51 34 30 0 0 0 0 3 5 2 0 0 0 0 0 2
954 900 870 802 731 652 522 377 308 474 483 450 550 587 618 631 590 548 526 497 411 360 545 596 675 695 659 650 658 718 766 730 644 500 462 422 444 452 490 504 480 388 370 338 316 330 364 305 262 218 0 0 0 0 0 0 0 0 0 4 7 0 0
864 866 857 785 677 553 408 302 328 496 492 479 471 550 496 502 538 498 509 446 418 390 513 584 694 776 806 830 842 859 819 781 656 613 615 590 514 548 578 567 542 545 462 332 92 334 381 343 352 267 175 0 0 0 0 0 0 0 0 0 0 0 0
841 866 835 712 694 543 329 313 440 497 471 451 444 518 387 474 514 472 366 335 338 365 415 479 584 716 836 871 868 828 809 780 720 710 717 668 596 554 611 608 603 646 681 548 444 473 480 463 428 316 74 0 0 0 0 0 0 0 2 0 0 0 0
881 869 817 777 718 600 330 322 443 472 489 443 391 475 388 402 423 335 310 291 296 293 323 439 533 615 704 772 828 844 857 824 782 780 727 694 684 665 633 592 586 572 622 679 527 422 479 509 447 234 0 0 0 0 0 0 0 0 0 0 0 0 0
877 869 745 744 672 555 361 431 500 611 550 442 375 417 378 327 286 293 272 274 271 254 224 342 456 468 474 505 588 747 774 771 727 764 714 688 687 746 721 590 530 524 497 653 565 436 423 500 425 31 0 0 0 0 0 0 0 0 0 0 0 0 0
890 835 710 668 640 515 414 394 345 578 543 352 366 391 366 299 316 301 308 305 276 254 228 0 0 0 274 356 421 514 607 645 704 760 692 616 696 775 766 574 593 476 384 503 517 432 438 451 158 0 81 0 0 0 0 0 0 11 8 1 0 0 0
760 867 732 680 604 474 449 389 292 424 425 404 409 390 335 324 362 337 339 304 262 240 225 12 0 0 223 302 339 422 483 512 621 664 600 560 668 821 854 671 594 462 467 414 345 321 406 459 418 394 371 320 15 0 0 0 23 28 34 17 0 0 0
672 723 674 656 595 449 384 420 372 409 438 437 433 382 319 361 351 310 282 296 284 252 236 64 0 0 0 239 262 326 437 558 603 606 590 587 664 826 918 767 556 408 469 424 294 221 270 249 285 337 353 384 326 226 141 46 36 29 36 20 0 0 0
461 560 606 677 575 385 376 476 394 428 431 428 440 409 386 350 290 234 248 278 264 243 224 0 0 0 0 84 170 228 346 461 531 570 579 594 700 878 908 751 593 470 458 388 293 128 232 174 50 113 82 109 196 198 175 98 69 53 56 12 0 0 0
484 476 508 594 498 408 402 485 287 278 433 456 450 421 376 299 293 252 173 222 210 180 108 135 0 0 0 0 0 0 0 76 288 302 360 449 654 823 693 679 490 412 462 267 208 0 0 0 0 0 0 0 0 0 0 0 0 0 0 0 0 0 0
444 450 567 482 471 526 440 443 246 169 364 445 391 389 273 291 30 0 6 180 142 129 107 23 0 0 0 0 0 0 0 0 0 143 169 265 434 611 561 528 299 208 254 279 0 0 0 0 0 0 0 0 0 0 0 0 0 0 0 0 0 0 0
243 314 393 461 424 488 495 386 261 86 194 71 345 275 231 171 16 0 95 162 124 85 51 0 0 0 0 0 0 0 0 0 0 0 112 253 402 497 505 400 260 25 0 38 0 0 0 0 0 0 0 0 0 0 0 0 0 0 0 0 0 0 0
197 261 408 410 476 462 436 380 195 125 81 167 128 198 190 72 0 0 80 180 122 40 0 0 0 0 0 0 0 0 0 0 0 0 70 310 466 460 394 174 0 0 0 0 0 0 0 0 0 0 0 0 0 0 0 0 0 0 0 0 0 0 0
62 210 282 391 429 430 277 248 128 169 175 0 2 203 145 8 0 0 48 127 0 22 0 0 0 0 0 0 0 0 0 0 0 0 36 275 245 230 44 0 0 0 0 0 0 0 0 0 0 0 0 0 0 0 0 0 0 0 0 0 0 0 0
55 73 14 312 410 346 278 136 91 136 168 19 0 166 108 4 0 0 29 30 0 0 0 0 0 0 0 0 0 0 0 0 0 11 225 190 163 51 0 0 0 0 0 0 0 0 0 0 0 0 0 0 0 0 0 0 0 0 0 0 0 0 0
68 72 58 30 297 345 334 250 154 177 122 0 29 167 100 52 0 0 21 75 34 0 0 0 0 0 0 0 0 0 0 0 121 162 213 191 186 142 0 0 0 0 0 0 0 0 5 12 1 0 0 0 0 0 0 0 0 0 0 0 0 0 0
35 46 11 62 274 332 275 277 230 108 38 2 18 158 116 75 0 0 0 22 50 0 0 0 0 0 0 0 0 0 0 92 153 160 164 137 0 0 0 0 0 0 0 0 0 0 1 6 4 0 2 0 0 0 0 0 0 0 0 0 0 0 0
8 22 19 28 154 321 271 196 42 31 8 46 21 96 83 58 49 0 0 0 60 61 2 0 0 0 0 0 0 0 0 0 134 130 117 81 0 0 0 0 0 0 0 0 0 0 0 0 0 0 34 81 84 86 6 18 0 0 0 0 0 0 0
13 15 8 79 232 286 290 218 61 15 6 146 66 93 95 75 61 0 0 0 57 66 6 0 0 0 0 0 0 0 0 0 25 61 20 96 121 123 70 0 0 0 0 0 0 0 0 0 0 0 0 22 0 0 82 86 83 64 0 28 45 0 0
23 26 50 70 81 274 224 116 39 39 0 177 54 17 58 66 16 0 0 0 0 0 0 0 0 0 0 0 0 0 0 0 0 4 50 78 96 97 70 45 22 0 1 0 0 0 0 0 0 78 89 96 102 88 89 77 80 77 69 19 20 0 0
6 21 68 107 178 163 140 70 40 8 29 105 64 0 53 64 19 0 0 0 0 0 0 0 0 0 0 0 0 0 0 0 0 0 4 32 41 36 28 28 31 26 28 33 72 73 0 0 0 0 0 0 0 0 10 2 5 5 3 2 2 1 0
0 16 23 23 96 140 124 75 40 34 15 17 68 14 60 73 47 0 0 0 0 0 0 0 0 0 0 0 0 0 0 0 0 0 0 10 30 31 36 35 50 70 83 62 33 31 7 5 0 0 0 0 0 0 0 0 0 0 0 0 0 0 0
1 0 5 24 2 49 54 66 37 27 34 29 45 67 68 50 49 22 0 0 2 2 1 0 0 0 0 0 6 10 15 0 0 0 0 0 1 12 19 5 0 6 41 31 14 0 8 0 0 0 0 0 0 0 0 0 0 0 0 0 0 0 0
0 0 0 0 3 14 33 30 16 4 22 40 50 51 47 57 44 16 3 7 12 19 16 6 3 0 0 12 17 12 1 0 0 0 0 0 2 0 1 0 0 5 6 3 6 0 0 0 0 0 0 0 0 0 0 0 0 0 0 0 0 0 0
0 0 0 0 1 12 27 26 7 4 14 21 30 32 26 11 24 10 0 0 1 8 7 3 2 1 8 10 13 22 4 10 20 26 23 13 7 3 0 2 0 0 0 0 0 0 0 0 0 0 0 0 0 0 0 0 0 0 0 0 0 0 0
4 2 0 0 6 8 8 2 0 0 5 8 14 3 0 0 1 0 0 0 4 0 2 5 0 3 0 0 0 0 0 0 0 0 0 0 0 0 0 0 0 0 0 0 0 0 0 0 0 0 0 0 0 0 0 0 0 0 0 0 0 0 0
6 4 4 2 0 0 9 17 22 14 9 7 4 0 1 0 0 0 0 0 0 0 1 1 0 0 0 0 0 0 0 0 0 1 0 0 0 0 0 0 0 0 0 0 0 0 0 0 0 1 6 4 2 1 1 0 0 0 0 0 0 0 0